Theta_e
349 349 349 342 338 339 339 341 341 342 343 344 344 343 344 344 343 345 345 345 344 344 344 343 340 338 338 341 346 348 349 349 350 349 348 348 349 348 348 348 346 344 343 339 336 337 339 340 340 340 340 340 341 343 343 343 344 343 344 346 345 343 345
349 349 350 345 340 339 339 340 341 342 343 343 343 343 343 344 344 344 345 345 344 344 343 342 341 339 338 340 343 346 348 349 349 349 349 348 349 349 348 348 347 346 345 343 339 338 340 342 342 340 340 339 340 342 343 344 344 345 345 345 344 343 344
349 348 350 348 343 340 340 340 340 341 342 342 343 342 342 343 344 344 345 345 346 345 343 343 342 341 340 340 342 344 346 347 348 348 349 349 349 349 348 348 348 347 346 347 346 343 341 343 344 342 340 340 341 342 343 344 345 346 346 345 344 344 343
348 347 347 349 347 343 341 341 340 341 342 342 342 342 343 343 344 345 345 345 346 347 346 344 343 342 342 341 341 343 345 345 346 347 348 349 348 348 348 348 347 347 347 348 348 346 344 345 346 345 343 342 343 344 344 344 345 346 346 344 343 343 342
349 347 345 348 349 347 344 341 341 341 341 342 342 343 343 344 345 345 345 346 347 347 347 346 344 343 343 342 340 342 343 343 343 345 347 348 348 348 347 346 346 347 347 346 347 347 346 346 347 348 346 345 346 346 345 345 345 345 345 344 343 343 342
349 347 346 346 348 350 348 344 342 342 342 343 343 343 344 344 345 345 345 346 347 348 348 348 347 345 344 343 341 341 343 343 342 343 345 346 347 348 346 345 346 346 345 345 345 346 345 345 347 348 348 347 346 346 346 346 346 346 346 345 344 344 343
349 348 347 346 346 349 350 348 345 343 343 343 343 344 345 345 346 346 346 346 347 348 349 349 349 347 345 344 343 342 343 343 342 342 343 345 347 348 346 345 345 345 344 344 344 345 344 344 345 346 347 348 347 347 348 348 348 347 346 345 344 344 343
350 349 347 346 345 346 349 351 348 345 344 344 344 344 345 345 346 346 346 346 348 349 349 349 350 349 346 344 344 344 343 342 342 342 343 344 347 347 346 345 346 345 344 343 344 345 345 345 345 345 346 347 347 347 348 348 348 347 346 345 344 344 344
351 350 349 349 348 347 348 352 351 347 345 345 345 345 345 346 346 346 347 347 348 349 349 349 350 350 348 344 344 344 343 342 342 342 342 343 344 345 345 345 346 345 345 344 344 346 348 348 347 347 347 348 348 348 348 347 346 346 346 346 346 345 344
350 351 351 350 350 350 351 353 353 350 348 347 346 345 345 345 346 347 347 347 348 349 349 350 350 351 348 344 343 344 344 342 342 342 342 341 341 342 343 344 345 346 347 347 347 349 349 349 348 348 348 350 349 349 349 347 346 345 345 346 347 346 345
349 349 350 350 351 352 352 352 351 349 348 347 348 348 349 348 348 348 348 348 348 349 349 349 350 351 350 345 343 344 344 342 342 342 342 341 340 340 341 342 344 346 348 348 349 350 351 351 350 349 348 350 350 350 349 348 348 347 346 346 347 348 347
348 348 348 349 350 351 350 350 350 350 350 348 347 348 349 351 352 352 352 353 353 352 352 351 350 350 350 347 343 343 344 343 342 342 342 341 340 340 340 342 343 346 348 350 351 351 352 352 351 349 348 348 350 350 349 349 350 349 348 348 348 348 348
347 347 347 348 349 349 348 348 348 348 349 349 347 347 348 350 352 353 354 353 352 353 353 353 353 352 351 349 344 342 343 344 344 343 342 341 341 341 341 342 342 344 348 351 353 352 352 352 352 350 349 349 349 349 349 349 350 350 350 350 350 349 349
345 345 346 347 349 349 349 348 348 348 348 349 348 348 348 349 350 352 354 354 352 349 350 350 351 352 353 351 348 343 341 343 344 344 343 342 341 341 342 342 342 344 348 351 353 352 351 351 351 351 350 349 350 349 348 348 349 349 350 350 351 351 350
344 344 345 347 347 348 348 348 348 348 348 349 349 349 348 348 349 349 351 354 354 352 349 347 348 351 351 350 350 347 343 343 344 344 344 344 344 344 343 342 343 346 350 353 352 352 351 351 351 351 351 350 350 349 349 349 349 349 349 349 349 350 350
343 344 345 345 346 346 347 348 348 348 349 349 349 348 348 348 348 348 349 352 354 354 353 349 348 350 349 347 349 349 346 345 346 346 346 345 347 348 346 344 344 347 351 352 351 351 351 350 350 351 351 350 350 350 350 350 350 350 349 348 348 349 349
343 344 344 344 345 346 346 347 347 347 348 349 348 348 348 348 349 350 350 350 353 355 354 352 349 349 349 347 347 347 347 347 348 349 350 350 350 351 351 350 348 348 349 349 350 350 350 350 350 350 350 350 350 350 350 350 350 350 350 350 349 349 349
343 343 343 344 345 345 345 346 346 347 347 348 349 348 348 349 349 350 351 351 352 353 354 354 351 349 348 347 346 345 347 350 351 350 351 353 353 353 352 353 352 351 350 350 350 351 350 350 350 350 349 350 350 350 350 350 349 349 349 350 350 349 350
342 342 343 344 344 345 346 346 346 347 347 347 348 349 348 349 349 349 350 351 352 352 354 355 353 351 351 350 349 349 350 352 353 351 349 351 353 353 352 352 352 352 351 351 351 351 351 350 349 349 348 349 349 350 349 349 349 348 348 349 349 350 350
341 342 342 343 344 344 344 345 346 347 347 347 347 348 348 348 349 350 350 350 352 353 354 354 352 352 353 353 353 353 352 351 352 351 349 348 349 352 353 351 351 352 351 350 351 351 350 350 349 349 348 348 349 350 350 350 350 349 348 348 349 350 350
340 341 342 342 343 343 343 343 344 344 345 345 345 346 347 347 348 350 350 349 350 351 353 353 352 352 353 353 352 353 352 350 350 349 348 347 347 350 353 352 351 350 350 350 351 351 350 350 349 349 349 349 350 351 351 351 351 350 349 349 349 349 350
339 339 340 341 342 342 342 342 342 342 342 342 343 344 345 345 347 348 348 349 350 350 351 351 351 351 351 351 351 352 352 351 351 349 349 348 348 348 350 352 351 350 349 350 351 350 350 349 349 349 349 350 350 350 350 350 350 351 351 350 350 349 349
338 338 338 339 339 339 340 340 340 341 341 340 341 342 342 344 345 346 346 347 349 350 349 349 350 349 349 350 351 353 352 351 351 350 349 349 348 347 348 351 351 350 349 350 352 352 351 349 348 348 348 349 350 349 349 349 350 351 351 351 350 350 349
336 337 338 337 337 337 337 338 337 338 338 339 339 340 341 342 344 344 345 345 346 347 347 347 348 348 348 349 350 349 349 349 349 349 349 349 349 349 349 350 351 349 348 349 351 352 351 350 349 349 350 350 351 350 350 349 349 350 351 350 350 350 349
334 335 336 335 335 335 335 336 335 335 336 337 337 339 340 341 342 343 343 342 343 344 345 345 346 347 347 347 346 345 346 347 347 346 346 346 346 346 347 347 348 348 348 348 349 349 350 350 349 349 350 351 352 352 352 351 350 349 350 350 349 349 349
331 332 332 332 332 333 333 334 334 334 334 334 335 336 337 338 340 341 341 341 341 342 343 343 344 345 345 345 345 345 345 345 345 345 345 345 344 344 344 344 345 345 345 346 346 347 347 347 347 347 348 348 349 350 351 351 351 350 350 350 350 350 350
329 329 330 330 331 331 331 332 331 332 332 331 331 330 332 335 338 338 339 339 340 340 341 341 341 341 341 341 342 343 343 343 343 344 344 344 344 344 345 345 345 345 345 346 346 346 346 346 347 347 347 348 348 348 349 350 350 350 350 350 351 351 350
327 327 327 328 328 328 328 328 329 329 329 329 327 325 326 330 334 336 337 336 336 336 336 338 339 339 339 340 339 339 340 340 341 342 343 343 343 343 343 344 344 345 345 346 346 346 346 346 346 347 347 348 348 349 349 349 349 349 349 350 350 350 349
324 324 323 323 322 322 323 323 324 326 327 327 325 322 322 323 326 331 334 334 333 333 334 336 337 337 337 337 337 337 337 338 338 339 340 341 341 342 342 343 343 344 344 345 345 346 345 345 345 345 346 347 348 349 349 349 349 349 348 349 348 348 348
322 320 319 317 315 315 315 314 315 317 320 321 320 320 320 320 321 323 325 327 327 328 330 333 335 335 335 335 335 336 335 335 336 337 338 338 339 340 341 342 342 343 344 345 345 345 345 344 344 344 345 345 346 346 346 347 347 347 346 346 346 345 346
318 317 315 314 314 314 313 313 312 311 312 313 313 315 317 318 318 318 319 321 322 321 322 326 330 332 333 333 333 334 334 334 334 335 336 337 336 336 337 339 340 341 342 344 345 344 343 343 343 343 343 343 343 343 342 343 343 343 342 343 343 343 343
315 316 316 316 317 317 316 316 315 313 312 311 311 312 312 313 315 316 316 318 320 319 319 320 323 325 327 328 330 330 331 332 332 332 334 334 333 333 334 335 336 336 337 339 342 343 342 341 341 341 341 341 340 339 339 338 338 339 339 339 338 339 340
316 318 318 317 317 317 317 316 316 315 314 313 313 313 312 312 312 312 313 316 317 317 317 319 320 320 321 323 325 326 327 328 328 327 327 327 328 329 329 330 331 333 333 334 337 340 341 339 338 338 337 337 337 336 335 335 335 335 335 334 334 334 335
316 317 317 317 317 318 318 317 316 315 315 314 314 314 314 314 313 311 311 313 314 314 315 316 318 318 320 321 322 324 325 325 324 324 323 322 323 323 323 324 325 327 331 333 334 338 339 337 337 336 334 334 333 332 331 331 330 330 329 329 329 329 329
315 316 317 318 318 319 319 318 317 317 315 314 313 312 311 311 312 312 312 312 313 314 314 312 313 316 319 322 323 324 324 323 324 325 325 324 322 320 320 320 319 320 326 330 333 336 337 337 336 335 332 331 331 331 332 332 332 330 329 329 330 329 329
317 316 316 317 318 318 319 320 320 319 317 315 314 313 311 309 307 309 311 311 312 313 312 310 311 312 316 320 322 323 323 323 322 323 324 323 321 319 320 320 317 316 318 322 327 332 334 335 335 333 332 332 332 333 334 333 332 331 329 327 326 326 327
321 319 317 317 318 319 321 323 323 322 321 319 317 316 316 313 309 307 308 310 311 311 310 310 310 311 313 316 318 320 321 322 322 322 323 323 321 320 321 321 319 318 316 316 318 321 324 327 328 328 328 330 331 332 332 329 328 328 327 322 316 314 315
325 324 322 321 321 322 323 324 324 324 324 323 321 319 318 317 314 308 306 306 308 309 310 311 313 314 315 315 317 319 321 321 321 321 322 323 321 319 319 320 322 321 320 318 317 317 318 319 319 319 319 320 322 324 325 325 323 323 321 316 310 307 307
Wind_Speed
29 28 28 32 37 40 41 44 44 44 43 42 40 37 35 33 31 28 26 23 24 26 28 28 28 29 29 28 27 26 26 25 24 24 23 22 21 19 19 18 19 19 18 17 18 17 14 14 14 13 13 14 14 13 12 12 11 11 11 11 10 9 8
28 28 26 28 35 40 42 44 45 44 44 43 40 38 36 35 32 30 27 24 24 27 28 28 28 29 29 28 27 27 27 26 25 25 24 22 21 20 19 18 18 18 17 16 16 16 14 13 13 13 13 14 14 13 12 11 11 11 11 11 10 10 9
29 29 27 26 30 38 42 43 45 46 45 44 42 39 38 36 33 31 28 25 25 26 27 27 28 28 29 28 27 27 27 27 26 25 24 23 21 21 20 19 18 18 17 16 15 15 15 13 13 13 14 14 14 14 13 12 11 11 11 11 10 10 10
30 31 31 27 27 34 41 43 45 46 46 45 43 41 39 36 34 31 28 25 24 25 26 26 26 27 28 28 28 28 28 27 27 26 25 23 22 21 21 21 20 18 18 17 16 16 15 14 14 14 14 14 14 14 13 12 12 11 11 11 11 10 10
30 32 34 32 27 28 35 42 44 46 47 45 44 41 38 36 34 32 30 27 25 25 25 25 25 26 27 28 29 29 28 27 27 26 25 25 23 22 23 22 21 19 19 18 17 17 17 16 16 15 15 15 14 14 14 13 12 12 12 12 11 11 10
31 33 36 37 33 26 28 37 43 44 45 45 44 42 39 37 35 33 31 29 27 26 25 25 25 26 27 28 29 29 28 28 27 26 25 25 24 24 24 23 22 20 19 18 18 18 18 18 17 16 15 15 14 14 14 13 12 12 13 13 12 11 10
29 32 35 38 38 30 24 29 38 43 43 44 44 43 40 38 36 34 33 32 30 27 27 27 26 26 27 28 29 29 29 28 27 26 26 25 25 25 24 24 22 21 19 19 19 19 19 19 18 17 16 15 15 14 13 13 13 13 13 13 12 11 11
27 29 32 36 39 36 28 25 30 38 42 42 43 44 43 40 38 36 35 34 32 30 29 29 28 27 27 28 29 29 29 28 27 27 26 26 26 25 25 24 23 21 21 20 20 20 19 18 18 17 17 16 15 14 14 14 14 13 13 13 12 12 12
17 21 22 26 30 33 31 27 27 34 40 42 43 44 43 42 39 38 37 35 34 33 31 30 28 26 27 29 30 30 30 29 28 27 27 27 26 25 25 25 23 22 22 22 21 19 19 18 18 17 17 16 16 15 14 15 15 14 14 13 13 12 12
5 12 16 19 23 25 26 23 20 24 31 37 41 45 45 45 42 39 38 37 36 34 32 30 29 27 27 29 29 29 30 30 29 28 27 27 26 26 25 24 23 22 22 21 20 19 18 17 17 17 17 16 16 15 15 15 15 15 15 14 13 12 12
10 5 6 5 12 19 24 23 17 13 13 16 23 31 35 39 42 41 40 40 39 36 33 31 29 27 27 28 30 30 30 30 30 29 28 27 26 26 25 24 23 22 21 20 19 18 17 17 18 18 18 17 16 16 15 15 15 15 14 14 14 13 12
9 7 5 4 3 6 13 20 24 24 19 13 13 20 24 27 32 36 38 39 37 34 34 33 31 28 27 27 30 30 30 30 31 30 29 28 27 26 26 25 25 23 21 20 18 17 16 16 17 18 18 17 17 16 16 15 15 15 14 14 14 14 13
8 4 8 7 4 4 4 8 16 26 29 25 21 25 29 31 31 34 37 40 37 33 32 33 32 32 29 28 30 31 30 30 30 30 29 29 29 28 27 26 26 25 22 20 18 18 17 17 17 17 16 16 16 17 16 16 16 16 15 14 14 14 14
9 3 4 8 8 9 8 5 6 13 22 26 26 27 31 35 37 37 37 40 41 39 35 32 34 35 32 30 31 32 30 29 28 28 28 28 28 29 28 28 27 26 24 22 21 19 18 17 17 16 14 14 14 16 17 16 16 16 16 16 15 15 15
7 6 3 3 4 6 6 4 4 8 14 20 24 27 31 35 39 40 39 39 39 40 39 36 34 34 31 29 31 32 31 29 27 26 26 26 26 27 28 28 28 27 25 24 22 21 19 17 17 16 14 13 13 13 15 16 17 17 17 17 16 16 16
6 8 8 3 2 4 4 3 3 5 10 16 22 26 29 33 37 41 42 41 38 38 38 36 33 32 31 28 28 30 30 28 27 26 26 25 24 24 25 26 27 28 28 26 24 22 21 19 18 18 17 15 13 13 14 15 16 16 17 17 17 17 17
7 7 8 6 4 3 3 4 5 6 7 13 20 24 27 29 32 35 38 40 38 35 34 35 33 32 30 27 26 27 28 27 26 26 27 27 25 23 22 23 25 27 27 26 24 23 22 21 21 21 20 18 17 15 15 16 16 16 17 17 18 18 19
9 10 10 9 7 4 3 2 3 5 6 9 17 23 26 27 28 29 32 35 35 34 34 36 34 31 28 26 25 27 28 28 27 26 27 29 29 27 26 26 27 28 29 28 26 24 23 23 23 22 22 21 20 18 18 18 17 18 19 19 19 19 20
9 9 10 9 8 7 5 4 3 3 2 4 11 19 24 26 27 27 29 32 34 34 36 37 34 31 30 28 28 29 29 30 30 28 27 28 30 29 29 29 28 29 30 28 26 24 23 23 23 23 22 22 22 21 20 20 19 19 19 20 20 20 19
10 9 9 9 8 8 6 5 4 2 2 2 3 11 16 20 23 23 24 28 31 33 36 36 33 30 30 30 30 30 30 29 30 29 27 28 28 27 27 27 26 27 27 26 26 25 24 23 22 22 23 24 24 24 23 22 21 20 20 20 20 20 20
10 9 10 10 10 9 8 7 6 3 2 3 1 4 10 15 19 21 22 24 25 26 29 31 29 27 27 27 26 27 28 28 28 28 26 27 29 26 22 22 23 23 23 23 24 25 25 24 23 22 23 25 26 26 26 24 24 23 22 21 21 21 22
11 10 10 11 10 9 9 8 8 8 6 5 4 4 5 8 12 15 17 19 19 20 22 24 25 25 26 26 25 25 26 27 28 28 27 28 30 29 24 21 21 21 22 23 23 23 24 24 24 23 23 25 26 27 27 27 26 25 24 23 23 23 24
11 10 10 10 10 10 11 10 10 11 9 9 9 8 7 6 7 9 10 13 15 16 18 19 21 23 24 24 25 25 24 24 24 25 25 26 27 27 26 25 23 22 23 24 24 24 26 26 25 25 24 25 26 27 28 28 28 27 26 26 26 27 27
10 11 11 11 12 12 12 12 12 13 12 12 13 12 10 6 4 6 9 12 13 13 12 13 15 18 19 19 20 20 19 20 21 20 20 21 22 23 25 26 25 23 24 25 26 27 28 28 28 27 27 27 28 29 29 29 29 29 29 29 28 28 29
10 10 10 9 10 10 10 10 11 13 14 14 15 14 11 9 5 5 8 10 10 10 9 9 11 14 15 16 17 17 17 18 21 21 20 20 21 23 26 27 27 26 26 28 29 28 27 28 28 29 29 30 30 30 31 32 31 31 31 30 29 29 29
10 9 8 8 8 8 8 8 9 12 13 14 14 13 11 9 7 6 8 8 7 7 7 7 7 7 8 9 11 15 17 19 20 22 22 22 22 23 26 28 28 27 27 27 27 27 26 27 29 30 30 30 31 30 31 33 33 32 32 32 31 31 30
10 9 8 8 8 8 7 7 8 10 11 12 12 10 9 7 7 8 10 10 10 10 9 8 7 6 5 6 6 6 9 10 13 16 18 19 20 21 22 24 24 25 25 25 25 26 26 26 28 29 30 30 30 30 31 32 33 34 35 35 35 34 33
9 9 8 7 6 6 6 6 7 8 9 10 10 9 7 5 5 8 9 10 12 12 10 7 6 5 5 6 5 4 3 2 4 7 9 11 13 14 14 14 15 17 19 19 20 22 23 23 24 25 26 27 27 27 27 29 30 32 34 36 37 37 36
6 6 6 5 5 4 4 4 5 6 7 7 8 8 7 6 6 6 6 8 11 10 8 6 5 3 4 4 3 3 3 3 2 1 3 5 7 9 10 10 10 12 13 13 14 16 16 16 17 18 21 23 25 26 26 25 25 27 29 30 31 32 32
4 4 3 4 5 5 5 5 5 5 5 5 6 7 7 6 7 7 7 9 9 7 5 5 3 2 2 2 2 2 2 2 3 2 1 2 2 3 5 6 8 9 10 11 12 12 11 11 12 13 15 17 19 20 19 18 19 20 21 23 24 25 26
6 6 6 7 8 8 9 9 8 7 6 6 6 6 6 5 5 5 7 8 7 5 4 3 2 2 1 1 1 1 1 1 1 2 2 3 4 4 4 3 4 5 7 9 11 11 9 8 10 10 9 9 9 8 7 8 10 12 13 15 17 20 21
9 9 8 8 8 8 8 8 8 8 7 7 7 6 6 5 4 4 4 5 5 3 3 3 1 1 1 1 1 1 1 1 2 2 3 3 4 5 6 6 5 5 5 3 6 9 8 7 8 7 6 5 4 3 2 2 3 4 5 6 8 10 11
7 7 6 7 7 7 7 7 7 6 6 6 6 6 6 6 5 4 2 2 2 1 1 1 1 2 2 3 3 3 3 3 4 5 6 6 6 6 6 6 7 7 8 8 2 5 7 7 7 6 6 6 5 5 4 4 3 2 1 1 1 2 4
4 4 5 5 6 6 7 8 8 8 8 7 6 6 6 6 5 3 2 1 1 2 2 2 2 3 3 3 4 4 4 5 6 7 8 9 9 8 7 6 5 5 6 8 7 2 5 6 5 5 7 8 8 8 7 6 4 3 2 2 2 3 4
3 1 2 3 4 5 7 8 9 9 10 10 9 8 8 8 7 6 4 3 3 3 3 3 4 5 5 5 4 4 4 5 6 6 8 9 10 9 7 4 3 3 4 6 7 5 3 4 5 7 9 9 8 8 6 4 3 2 1 2 3 4 4
4 5 5 3 4 5 7 7 8 9 9 10 10 10 10 10 10 9 8 7 6 5 5 5 5 6 7 7 6 6 5 5 5 6 7 7 7 8 8 5 3 3 3 4 5 5 3 2 3 5 6 5 4 3 1 0 1 3 5 7 9 8 8
3 4 6 6 7 7 7 8 8 9 9 9 9 10 11 11 10 10 9 9 8 8 7 6 6 6 8 8 8 8 7 5 5 5 5 5 5 6 7 7 6 5 4 4 4 4 2 1 1 2 2 3 4 4 5 7 8 9 10 12 13 12 10
2 3 5 7 7 7 7 8 9 10 10 10 10 10 10 11 10 10 10 9 9 8 7 6 6 6 7 8 9 9 8 7 6 5 5 5 5 5 5 4 5 6 6 5 5 5 4 2 1 4 5 7 8 8 8 10 12 13 13 13 13 11 9
Wind_Direction
201 199 196 198 199 198 200 201 201 201 202 204 206 207 208 210 211 212 213 215 214 214 214 215 215 214 215 214 211 212 215 216 217 217 217 220 223 223 222 220 218 216 216 217 218 217 213 208 206 210 212 215 218 220 219 218 218 222 225 229 229 225 228
202 199 194 195 197 198 200 201 202 203 204 206 208 209 210 210 212 212 213 215 214 213 214 216 217 216 217 215 214 216 217 218 219 219 219 221 224 225 225 224 222 219 218 219 221 219 212 208 210 213 216 218 218 217 218 219 221 225 227 229 228 227 232
202 199 194 194 198 199 200 200 202 205 205 207 208 209 211 212 213 214 214 215 214 213 215 216 218 218 217 215 215 217 219 220 220 219 219 221 224 226 227 229 227 225 223 223 226 224 218 215 216 216 218 221 220 218 219 220 223 228 230 230 230 230 235
202 201 197 198 201 201 201 201 202 205 207 209 210 211 212 213 215 215 216 217 217 215 215 216 217 219 218 216 215 217 219 221 221 220 220 221 224 226 226 227 227 226 225 225 226 226 223 222 221 219 220 221 222 222 223 224 227 231 233 236 237 236 238
201 201 200 203 205 203 203 203 203 206 208 210 210 212 213 214 215 215 216 219 220 220 219 218 218 219 219 217 217 218 219 221 222 222 222 223 224 224 223 223 223 222 223 224 224 225 226 225 223 222 221 221 223 224 224 226 231 234 236 238 239 240 242
200 201 202 206 209 208 207 207 206 207 209 211 211 212 214 215 216 216 217 218 220 221 221 221 221 220 220 220 219 219 220 220 222 222 223 223 223 222 220 219 219 219 220 222 224 225 225 225 226 226 226 227 227 225 225 227 230 234 237 238 238 240 240
200 203 203 206 211 211 212 213 210 208 210 212 213 212 214 216 217 218 218 218 219 220 221 222 223 222 221 221 221 221 221 220 221 222 223 223 223 222 220 218 218 219 220 222 224 226 226 226 228 229 231 233 231 229 229 229 230 235 239 240 240 240 239
204 207 207 207 212 215 217 218 215 211 209 210 211 212 213 216 218 219 219 220 219 220 221 222 223 223 222 222 222 221 221 221 221 221 223 224 224 224 222 220 220 220 220 221 223 225 226 227 228 230 232 233 233 233 233 233 233 235 237 239 239 239 239
212 208 209 210 214 219 223 224 221 216 212 211 211 211 213 215 217 220 221 221 220 220 222 223 224 226 224 222 222 222 221 221 221 222 224 225 225 224 223 222 223 223 222 222 223 224 226 228 229 229 231 232 233 233 233 234 234 232 233 234 234 235 237
275 208 204 212 217 221 224 222 221 218 214 212 212 212 214 215 217 220 222 221 220 221 222 222 224 226 226 223 222 221 221 221 221 222 224 226 225 225 224 223 225 226 225 224 224 225 228 231 231 231 232 235 235 233 232 233 232 231 231 231 230 231 232
3 260 216 217 227 229 229 228 230 228 221 217 214 211 212 213 216 218 220 221 221 222 223 223 223 225 226 225 222 221 221 221 221 223 224 226 225 225 226 227 228 228 228 229 229 230 233 235 235 235 236 238 237 235 234 234 234 233 232 233 231 228 228
19 302 292 358 353 261 246 242 242 241 240 241 231 221 215 211 212 214 215 214 214 216 217 218 221 224 225 226 223 221 221 221 222 223 224 226 226 226 227 228 230 229 228 229 231 234 237 237 237 237 238 240 241 240 240 239 239 238 237 237 233 229 229
42 299 257 256 258 248 255 261 254 247 243 242 237 228 222 218 216 217 217 215 212 214 214 213 216 219 221 224 224 222 222 222 223 224 225 227 228 228 227 228 230 229 227 228 232 237 239 238 236 235 237 241 244 245 245 244 244 244 241 239 236 235 234
60 63 231 239 242 235 228 234 245 242 241 242 240 235 229 223 219 220 224 223 220 220 219 217 218 218 217 220 224 223 223 223 224 225 226 228 230 230 230 229 229 230 229 230 233 237 238 236 234 234 236 241 246 247 247 246 247 246 244 242 241 241 240
68 79 108 218 245 249 241 237 222 216 224 231 233 232 228 223 220 222 227 228 225 222 219 218 220 220 219 221 223 224 224 224 226 227 227 228 229 231 231 231 231 231 231 233 236 237 237 236 236 237 238 242 246 246 245 245 245 246 246 247 246 245 245
65 73 72 64 321 288 284 316 309 258 238 231 227 225 223 221 220 221 224 227 227 223 219 218 218 219 221 222 222 223 224 223 225 228 229 226 226 228 230 231 231 230 231 234 235 235 236 239 241 243 244 246 248 247 246 245 244 244 246 248 250 250 249
57 58 62 62 42 353 317 319 326 313 277 245 232 226 222 220 219 220 221 223 225 224 222 222 220 217 219 220 217 218 221 220 220 225 228 228 226 225 226 228 230 232 233 234 233 232 235 240 245 250 251 251 249 249 249 248 247 246 247 248 250 251 250
62 59 64 72 78 76 68 25 345 336 308 258 241 235 230 225 222 222 222 222 223 224 223 222 219 216 215 213 210 211 213 217 220 222 227 232 232 228 225 223 225 228 231 231 231 235 240 244 247 252 254 253 251 250 250 250 249 249 249 250 250 250 249
67 71 75 79 86 96 98 81 64 42 2 256 238 237 236 233 229 228 229 228 225 222 219 216 215 215 214 211 210 210 212 218 225 225 228 235 237 232 228 226 226 229 230 231 232 236 243 247 248 248 248 248 247 247 249 251 252 252 251 250 249 248 248
76 81 87 89 88 85 78 67 72 85 61 54 211 214 214 220 225 225 223 218 213 210 208 208 211 216 218 215 213 214 216 222 228 230 231 237 242 239 234 231 233 235 235 234 235 235 236 239 242 244 245 245 244 245 249 251 253 255 254 251 249 247 248
93 93 92 93 94 92 86 72 61 54 26 26 49 178 178 189 204 209 204 197 192 192 197 203 210 215 217 218 218 218 220 223 227 229 230 234 238 239 238 234 232 233 234 233 234 236 235 235 236 237 240 243 244 244 247 249 251 254 256 256 254 253 253
98 98 95 96 99 98 93 81 71 68 63 58 66 95 124 146 171 186 193 194 191 192 197 204 212 214 213 217 221 221 219 220 224 225 226 228 230 234 242 244 237 233 236 236 234 236 238 239 241 241 240 241 243 245 247 248 249 252 255 259 260 260 259
100 100 98 96 92 85 77 72 69 70 64 64 74 78 76 100 141 164 179 186 188 193 198 203 209 213 215 218 222 221 218 216 219 222 223 224 228 234 243 248 244 239 240 244 244 243 244 246 249 250 247 244 244 247 249 250 251 251 251 254 258 260 260
104 103 99 92 85 78 74 67 61 58 55 57 65 68 65 73 116 155 167 174 180 185 189 196 204 213 219 223 226 228 226 224 227 231 230 230 233 240 244 246 247 246 244 247 251 251 251 253 254 253 252 249 248 250 252 252 251 249 248 249 251 254 255
108 105 100 91 80 70 66 62 60 60 57 54 54 55 52 52 66 117 140 155 173 182 187 199 210 217 224 230 236 239 239 238 240 244 244 241 242 246 249 249 249 248 246 247 251 252 254 255 255 255 254 253 253 254 253 250 247 245 246 247 247 248 249
109 104 93 83 73 66 64 65 69 71 70 64 56 49 43 37 43 74 94 109 134 148 153 167 180 192 208 219 226 232 236 240 245 249 250 248 248 251 253 254 253 252 252 252 255 257 257 258 258 259 258 257 258 257 254 253 251 249 247 246 246 246 245
110 104 94 85 79 75 73 72 72 74 77 76 66 55 45 38 51 79 93 102 109 111 114 125 131 134 139 139 153 195 220 230 243 253 255 254 255 257 257 256 257 258 259 258 259 261 261 261 260 259 259 259 259 257 255 254 254 253 250 247 246 245 245
109 105 101 97 89 78 67 64 68 71 76 78 70 61 55 50 69 91 101 100 97 95 96 102 113 127 129 123 126 136 132 153 219 249 259 256 255 254 252 253 256 258 259 259 259 260 260 259 257 256 256 255 255 255 254 252 252 252 252 250 248 249 251
107 106 110 103 88 66 47 48 61 68 71 71 67 61 56 58 76 96 105 98 93 92 94 95 96 105 111 109 108 105 89 87 108 222 260 258 254 251 249 250 253 254 255 256 258 257 256 256 255 254 254 252 250 249 249 249 250 252 254 256 257 258 259
106 119 121 90 68 53 45 45 54 67 71 67 65 63 59 63 78 94 102 100 98 99 105 110 118 117 106 101 94 86 83 73 67 60 43 28 356 299 272 262 256 252 250 251 255 256 254 249 246 245 244 245 246 244 242 243 248 253 257 261 263 263 264
109 115 104 86 75 65 59 54 50 52 56 57 61 63 60 63 71 84 98 102 106 111 106 112 144 167 125 100 107 114 103 38 16 356 360 19 21 17 6 336 301 275 260 250 245 244 241 231 228 227 227 231 239 241 234 232 243 254 261 266 267 267 269
112 106 93 84 76 67 61 55 48 46 47 50 55 55 53 55 50 54 88 105 112 109 90 86 111 219 267 296 326 319 324 338 331 319 317 321 337 355 4 1 358 360 359 323 243 231 223 206 200 200 198 197 197 196 175 172 213 254 268 272 274 274 275
119 102 88 78 68 58 53 48 45 43 39 37 39 37 38 43 39 34 58 101 111 76 25 26 9 315 281 280 298 307 315 323 318 313 311 310 317 327 333 344 355 5 19 26 8 224 206 189 185 186 176 161 148 132 117 112 113 101 59 347 322 306 297
129 91 79 76 64 50 41 36 34 33 29 23 16 12 8 10 10 3 345 321 292 294 311 315 312 302 282 274 287 294 309 325 327 328 329 328 328 324 316 320 338 351 14 33 43 88 177 184 184 173 155 141 134 129 119 114 117 108 87 63 27 6 343
193 347 20 51 46 29 24 23 21 22 23 20 14 6 354 344 337 325 311 306 294 286 297 303 302 296 282 275 279 284 299 318 324 332 340 344 348 348 338 321 328 358 25 44 58 81 137 176 170 157 149 139 131 131 126 116 112 92 23 344 336 325 311
242 279 295 311 341 352 4 14 14 12 14 13 12 8 1 351 342 329 315 305 298 293 292 292 294 294 284 276 277 280 290 307 318 326 335 346 360 10 13 11 15 39 55 63 76 91 109 132 136 146 154 151 141 141 154 328 346 338 328 326 323 313 300
273 291 292 296 311 326 349 11 15 8 5 2 357 356 355 352 350 344 332 317 308 304 298 288 283 287 287 284 282 281 283 289 302 314 324 337 354 9 21 28 32 43 61 76 90 102 118 217 261 268 264 263 272 280 284 288 295 300 308 318 321 313 301
302 314 302 299 307 322 343 359 358 353 352 350 345 343 343 342 345 348 344 335 325 318 309 296 280 278 288 291 286 284 285 287 292 295 295 302 320 336 350 9 26 36 45 56 69 76 75 60 302 291 294 291 288 288 284 283 291 297 300 307 311 309 303